Location: Bishop�s Knoyle
(51.0728°N, 2.1714°W)
Time: 05:07:22
(UTC+00:00)

NOSS 2-2 (D) - Pass Details

Date: 18 September 2020
Orbit: 462 x 1746 km, 63.3° (Epoch: 14 October)

Event Time Altitude Azimuth Distance (km) Brightness Sun altitude
Rises 19:20:13 0° 198° (SSW) 2,482 6.7 -10.9°
Reaches altitude 10° 19:22:22 10° 189° (S) 1,611 5.6 -11.2°
Maximum altitude 19:25:32 33° 123° (ESE) 829 3.7 -11.7°
Drops below altitude 10° 19:29:03 10° 57° (ENE) 1,806 5.6 -12.2°
Sets 19:31:36 0° 49° (NE) 2,842 6.7 -12.6°
